QPF
0.00 0.01 0.01 0.03 0.03 0.05 0.06 0.06 0.07 0.04 0.04 0.05 0.05 0.04 0.05 0.05 0.06 0.05 0.05 0.06 0.06 0.06 0.07 0.07 0.09 0.08 0.08 0.07 0.07 0.09 0.09 0.07 0.09 0.11 0.12 0.13 0.14 0.12 0.09 0.07 0.06 0.05 0.06
0.00 0.01 0.01 0.03 0.05 0.06 0.08 0.09 0.09 0.07 0.05 0.04 0.05 0.05 0.03 0.03 0.03 0.03 0.04 0.06 0.06 0.06 0.07 0.08 0.09 0.11 0.13 0.11 0.10 0.08 0.07 0.06 0.07 0.09 0.13 0.15 0.15 0.14 0.11 0.09 0.07 0.06 0.07
0.00 0.01 0.02 0.01 0.03 0.04 0.05 0.08 0.08 0.07 0.05 0.02 0.02 0.02 0.03 0.03 0.04 0.03 0.03 0.04 0.05 0.05 0.07 0.08 0.09 0.11 0.11 0.12 0.11 0.10 0.09 0.07 0.08 0.08 0.11 0.13 0.13 0.11 0.12 0.10 0.07 0.08 0.07
0.01 0.01 0.01 0.01 0.01 0.01 0.02 0.05 0.07 0.06 0.04 0.03 0.02 0.02 0.03 0.04 0.04 0.04 0.04 0.04 0.04 0.04 0.04 0.07 0.08 0.10 0.11 0.12 0.11 0.13 0.12 0.10 0.10 0.10 0.09 0.09 0.09 0.10 0.12 0.11 0.10 0.11 0.12
0.01 0.02 0.01 0.02 0.02 0.01 0.01 0.02 0.04 0.05 0.04 0.04 0.03 0.03 0.03 0.03 0.04 0.04 0.04 0.04 0.04 0.03 0.04 0.05 0.06 0.06 0.08 0.08 0.10 0.12 0.11 0.10 0.10 0.10 0.09 0.08 0.07 0.08 0.10 0.10 0.10 0.13 0.16
0.02 0.01 0.01 0.02 0.02 0.01 0.01 0.01 0.02 0.03 0.03 0.04 0.04 0.04 0.03 0.03 0.03 0.04 0.04 0.04 0.03 0.03 0.04 0.05 0.05 0.05 0.06 0.06 0.06 0.08 0.08 0.10 0.11 0.12 0.11 0.10 0.08 0.06 0.07 0.07 0.06 0.09 0.14
0.01 0.01 0.02 0.03 0.06 0.05 0.02 0.03 0.03 0.03 0.03 0.03 0.03 0.03 0.02 0.03 0.03 0.03 0.03 0.03 0.03 0.02 0.03 0.03 0.04 0.04 0.05 0.06 0.06 0.07 0.07 0.08 0.08 0.08 0.10 0.10 0.08 0.06 0.07 0.07 0.07 0.06 0.06
0.02 0.02 0.02 0.03 0.04 0.04 0.03 0.04 0.05 0.04 0.04 0.04 0.03 0.03 0.03 0.02 0.03 0.03 0.02 0.03 0.02 0.02 0.03 0.03 0.03 0.03 0.04 0.04 0.06 0.06 0.06 0.07 0.06 0.06 0.08 0.09 0.07 0.06 0.06 0.06 0.07 0.07 0.07
0.01 0.01 0.02 0.02 0.03 0.03 0.03 0.03 0.03 0.04 0.04 0.03 0.02 0.02 0.02 0.01 0.02 0.03 0.04 0.03 0.03 0.02 0.02 0.02 0.02 0.03 0.04 0.04 0.05 0.05 0.05 0.06 0.06 0.06 0.06 0.06 0.06 0.07 0.06 0.06 0.07 0.09 0.09
0.01 0.01 0.01 0.02 0.02 0.03 0.03 0.03 0.02 0.03 0.03 0.03 0.03 0.03 0.02 0.02 0.02 0.03 0.03 0.02 0.02 0.02 0.03 0.02 0.03 0.03 0.03 0.04 0.05 0.05 0.05 0.06 0.08 0.07 0.06 0.05 0.04 0.05 0.05 0.06 0.08 0.09 0.09
0.02 0.02 0.02 0.03 0.02 0.03 0.03 0.03 0.03 0.04 0.04 0.04 0.04 0.04 0.04 0.04 0.04 0.03 0.02 0.03 0.03 0.03 0.03 0.03 0.03 0.03 0.03 0.03 0.04 0.05 0.05 0.06 0.06 0.06 0.06 0.05 0.05 0.04 0.04 0.04 0.06 0.06 0.07
0.02 0.01 0.02 0.03 0.03 0.03 0.03 0.04 0.04 0.04 0.05 0.05 0.05 0.05 0.06 0.06 0.05 0.04 0.03 0.03 0.04 0.03 0.03 0.02 0.02 0.03 0.03 0.03 0.03 0.04 0.03 0.04 0.04 0.03 0.04 0.04 0.04 0.04 0.04 0.05 0.04 0.05 0.06
0.02 0.02 0.02 0.03 0.04 0.04 0.04 0.04 0.04 0.05 0.05 0.06 0.06 0.07 0.07 0.07 0.07 0.07 0.06 0.05 0.04 0.03 0.03 0.02 0.02 0.02 0.02 0.03 0.03 0.03 0.03 0.03 0.02 0.02 0.03 0.03 0.03 0.03 0.04 0.04 0.05 0.05 0.04
0.03 0.04 0.03 0.03 0.05 0.08 0.08 0.06 0.05 0.05 0.05 0.05 0.05 0.06 0.08 0.08 0.07 0.07 0.07 0.06 0.05 0.05 0.04 0.03 0.03 0.04 0.03 0.03 0.02 0.02 0.03 0.03 0.02 0.02 0.02 0.02 0.02 0.03 0.03 0.03 0.04 0.05 0.05
0.03 0.03 0.03 0.04 0.04 0.07 0.08 0.05 0.04 0.04 0.04 0.04 0.04 0.04 0.05 0.05 0.05 0.06 0.06 0.07 0.07 0.05 0.05 0.05 0.05 0.04 0.04 0.03 0.03 0.04 0.03 0.03 0.03 0.03 0.03 0.03 0.03 0.02 0.03 0.03 0.04 0.05 0.05
0.02 0.02 0.03 0.04 0.06 0.06 0.06 0.04 0.04 0.04 0.03 0.04 0.02 0.02 0.02 0.03 0.03 0.03 0.04 0.06 0.08 0.08 0.07 0.07 0.07 0.06 0.04 0.03 0.04 0.05 0.04 0.03 0.03 0.03 0.03 0.02 0.02 0.01 0.01 0.01 0.02 0.03 0.04
0.03 0.03 0.03 0.03 0.04 0.05 0.05 0.06 0.04 0.02 0.01 0.01 0.01 0.01 0.01 0.02 0.03 0.04 0.07 0.11 0.13 0.12 0.11 0.10 0.09 0.09 0.06 0.03 0.03 0.03 0.04 0.03 0.03 0.03 0.02 0.01 0.01 0.01 0.01 0.01 0.01 0.01 0.02
0.06 0.03 0.01 0.02 0.03 0.04 0.04 0.04 0.03 0.02 0.02 0.01 0.01 0.01 0.01 0.02 0.02 0.03 0.04 0.09 0.10 0.11 0.14 0.14 0.14 0.12 0.07 0.05 0.03 0.02 0.03 0.03 0.03 0.02 0.02 0.01 0.02 0.02 0.02 0.03 0.03 0.02 0.02
0.09 0.04 0.01 0.02 0.03 0.03 0.04 0.03 0.02 0.01 0.01 0.02 0.03 0.01 0.01 0.02 0.03 0.04 0.04 0.06 0.07 0.07 0.09 0.10 0.10 0.09 0.07 0.05 0.04 0.03 0.03 0.04 0.03 0.03 0.02 0.02 0.02 0.02 0.02 0.03 0.04 0.03 0.02
0.06 0.04 0.02 0.02 0.03 0.03 0.03 0.03 0.03 0.03 0.03 0.02 0.01 0.01 0.02 0.03 0.04 0.05 0.05 0.06 0.06 0.05 0.07 0.07 0.07 0.06 0.05 0.04 0.03 0.03 0.03 0.04 0.04 0.05 0.04 0.02 0.01 0.01 0.01 0.02 0.04 0.04 0.03
0.03 0.03 0.03 0.04 0.04 0.06 0.06 0.05 0.04 0.04 0.03 0.02 0.02 0.02 0.03 0.03 0.04 0.05 0.05 0.05 0.05 0.05 0.07 0.05 0.05 0.05 0.04 0.03 0.02 0.02 0.02 0.03 0.04 0.04 0.03 0.03 0.01 0.01 0.01 0.01 0.03 0.03 0.03
0.03 0.04 0.05 0.07 0.10 0.09 0.07 0.06 0.05 0.03 0.03 0.03 0.03 0.03 0.04 0.04 0.05 0.06 0.06 0.06 0.08 0.08 0.09 0.06 0.04 0.03 0.02 0.02 0.02 0.02 0.01 0.02 0.03 0.03 0.03 0.03 0.02 0.01 0.01 0.01 0.01 0.01 0.02
0.04 0.04 0.05 0.07 0.11 0.10 0.09 0.09 0.11 0.08 0.05 0.05 0.05 0.05 0.05 0.05 0.05 0.07 0.09 0.07 0.08 0.09 0.07 0.04 0.03 0.02 0.01 0.01 0.01 0.03 0.03 0.03 0.02 0.02 0.02 0.03 0.02 0.01 0.01 0.01 0.01 0.01 0.02
0.04 0.04 0.05 0.07 0.09 0.08 0.06 0.06 0.07 0.06 0.06 0.07 0.08 0.08 0.08 0.06 0.06 0.07 0.09 0.07 0.06 0.07 0.06 0.04 0.02 0.02 0.01 0.01 0.01 0.02 0.04 0.04 0.03 0.02 0.02 0.03 0.02 0.02 0.02 0.02 0.01 0.01 0.02
0.04 0.05 0.07 0.10 0.10 0.07 0.05 0.04 0.04 0.05 0.07 0.06 0.06 0.07 0.06 0.05 0.05 0.05 0.05 0.06 0.04 0.03 0.05 0.04 0.03 0.02 0.01 0.01 0.01 0.02 0.03 0.03 0.03 0.04 0.04 0.04 0.03 0.03 0.02 0.03 0.03 0.02 0.02
0.03 0.04 0.06 0.08 0.09 0.08 0.06 0.05 0.05 0.04 0.05 0.05 0.05 0.05 0.04 0.04 0.04 0.04 0.03 0.06 0.06 0.03 0.03 0.03 0.02 0.02 0.01 0.01 0.01 0.01 0.02 0.03 0.03 0.04 0.04 0.04 0.03 0.02 0.02 0.04 0.04 0.04 0.03
MSLP
997.88 997.53 997.19 996.92 996.77 996.80 997.06 997.55 998.28 999.19 1000.22 1001.27 1002.29 1003.21 1004.00 1004.65 1005.18 1005.64 1006.05 1006.47 1006.93 1007.42 1007.94 1008.49 1009.03 1009.55 1010.02 1010.46 1010.84 1011.20 1011.54 1011.87 1012.19 1012.52 1012.83 1013.12 1013.38 1013.60 1013.78 1013.93 1014.07 1014.21 1014.38
997.27 996.91 996.56 996.28 996.11 996.13 996.38 996.89 997.65 998.61 999.71 1000.84 1001.94 1002.93 1003.78 1004.46 1005.00 1005.44 1005.83 1006.21 1006.63 1007.10 1007.62 1008.17 1008.73 1009.28 1009.78 1010.24 1010.66 1011.05 1011.41 1011.77 1012.13 1012.48 1012.82 1013.14 1013.42 1013.65 1013.82 1013.94 1014.03 1014.10 1014.18
996.75 996.34 995.96 995.63 995.42 995.40 995.62 996.12 996.88 997.87 999.01 1000.21 1001.38 1002.44 1003.35 1004.08 1004.65 1005.11 1005.50 1005.88 1006.28 1006.74 1007.25 1007.80 1008.37 1008.92 1009.45 1009.93 1010.37 1010.78 1011.16 1011.55 1011.94 1012.34 1012.72 1013.08 1013.39 1013.64 1013.82 1013.93 1013.98 1013.99 1013.99
996.47 996.00 995.54 995.15 994.87 994.78 994.94 995.38 996.10 997.06 998.20 999.41 1000.62 1001.73 1002.70 1003.49 1004.12 1004.62 1005.05 1005.45 1005.88 1006.34 1006.85 1007.41 1007.98 1008.54 1009.07 1009.56 1010.01 1010.44 1010.85 1011.26 1011.68 1012.11 1012.53 1012.92 1013.27 1013.55 1013.74 1013.85 1013.88 1013.85 1013.79
996.56 996.01 995.47 995.00 994.64 994.46 994.52 994.85 995.47 996.35 997.41 998.58 999.76 1000.88 1001.87 1002.71 1003.40 1003.97 1004.46 1004.92 1005.39 1005.89 1006.43 1007.00 1007.58 1008.14 1008.68 1009.18 1009.64 1010.07 1010.50 1010.93 1011.36 1011.81 1012.26 1012.68 1013.05 1013.35 1013.56 1013.68 1013.70 1013.66 1013.56
997.08 996.46 995.86 995.31 994.86 994.57 994.50 994.69 995.16 995.88 996.79 997.84 998.92 999.98 1000.96 1001.81 1002.55 1003.18 1003.75 1004.28 1004.82 1005.38 1005.96 1006.56 1007.17 1007.75 1008.29 1008.80 1009.27 1009.71 1010.14 1010.57 1011.02 1011.47 1011.92 1012.35 1012.73 1013.05 1013.27 1013.40 1013.43 1013.39 1013.29
997.98 997.32 996.68 996.08 995.55 995.17 994.96 994.99 995.26 995.77 996.47 997.32 998.23 999.16 1000.05 1000.87 1001.61 1002.29 1002.92 1003.54 1004.15 1004.78 1005.42 1006.07 1006.71 1007.32 1007.88 1008.40 1008.88 1009.32 1009.76 1010.19 1010.63 1011.08 1011.52 1011.94 1012.32 1012.64 1012.88 1013.02 1013.07 1013.05 1012.96
999.13 998.48 997.84 997.22 996.65 996.19 995.86 995.72 995.79 996.06 996.50 997.09 997.77 998.51 999.25 999.98 1000.68 1001.36 1002.03 1002.70 1003.39 1004.08 1004.79 1005.49 1006.17 1006.81 1007.40 1007.94 1008.43 1008.89 1009.33 1009.76 1010.19 1010.62 1011.05 1011.45 1011.82 1012.14 1012.39 1012.55 1012.64 1012.66 1012.61
1000.35 999.74 999.13 998.53 997.97 997.46 997.06 996.77 996.65 996.68 996.86 997.17 997.59 998.08 998.63 999.21 999.82 1000.46 1001.13 1001.82 1002.55 1003.30 1004.05 1004.80 1005.52 1006.19 1006.81 1007.38 1007.89 1008.37 1008.81 1009.24 1009.67 1010.08 1010.49 1010.89 1011.25 1011.57 1011.83 1012.03 1012.16 1012.23 1012.25
1001.43 1000.89 1000.35 999.81 999.28 998.78 998.33 997.96 997.68 997.51 997.45 997.50 997.65 997.90 998.22 998.63 999.11 999.66 1000.28 1000.96 1001.68 1002.45 1003.23 1004.00 1004.75 1005.45 1006.10 1006.69 1007.23 1007.73 1008.19 1008.63 1009.05 1009.46 1009.87 1010.25 1010.62 1010.95 1011.24 1011.48 1011.67 1011.80 1011.88
1002.25 1001.78 1001.32 1000.85 1000.38 999.93 999.49 999.08 998.72 998.41 998.17 998.01 997.93 997.95 998.06 998.28 998.60 999.03 999.56 1000.18 1000.87 1001.61 1002.38 1003.15 1003.90 1004.61 1005.28 1005.89 1006.45 1006.97 1007.45 1007.90 1008.33 1008.75 1009.16 1009.55 1009.93 1010.29 1010.61 1010.91 1011.16 1011.36 1011.52
1002.78 1002.36 1001.96 1001.55 1001.16 1000.77 1000.38 999.99 999.61 999.24 998.89 998.59 998.35 998.19 998.12 998.16 998.33 998.63 999.04 999.56 1000.18 1000.86 1001.58 1002.31 1003.04 1003.74 1004.40 1005.02 1005.59 1006.12 1006.62 1007.09 1007.54 1007.97 1008.39 1008.80 1009.21 1009.60 1009.97 1010.32 1010.64 1010.92 1011.14
1003.11 1002.70 1002.31 1001.95 1001.62 1001.29 1000.97 1000.63 1000.28 999.92 999.54 999.18 998.85 998.57 998.38 998.29 998.32 998.49 998.78 999.18 999.69 1000.28 1000.92 1001.58 1002.25 1002.91 1003.54 1004.15 1004.72 1005.25 1005.76 1006.24 1006.70 1007.14 1007.58 1008.02 1008.45 1008.88 1009.31 1009.72 1010.10 1010.45 1010.75
1003.35 1002.91 1002.51 1002.15 1001.84 1001.56 1001.30 1001.04 1000.75 1000.44 1000.10 999.74 999.39 999.07 998.81 998.63 998.56 998.61 998.78 999.07 999.46 999.92 1000.45 1001.02 1001.61 1002.20 1002.78 1003.34 1003.88 1004.40 1004.90 1005.38 1005.84 1006.30 1006.75 1007.20 1007.66 1008.13 1008.61 1009.08 1009.54 1009.96 1010.33
1003.66 1003.15 1002.69 1002.30 1001.98 1001.72 1001.50 1001.29 1001.08 1000.84 1000.57 1000.27 999.96 999.65 999.37 999.15 999.02 998.98 999.04 999.21 999.47 999.81 1000.21 1000.66 1001.14 1001.64 1002.14 1002.65 1003.14 1003.63 1004.10 1004.56 1005.01 1005.46 1005.91 1006.38 1006.86 1007.37 1007.89 1008.42 1008.94 1009.43 1009.88
1004.12 1003.53 1002.99 1002.54 1002.17 1001.89 1001.68 1001.52 1001.36 1001.20 1001.01 1000.78 1000.53 1000.27 1000.01 999.79 999.62 999.52 999.50 999.56 999.69 999.90 1000.17 1000.49 1000.85 1001.24 1001.65 1002.07 1002.50 1002.93 1003.36 1003.79 1004.22 1004.65 1005.10 1005.57 1006.07 1006.60 1007.16 1007.74 1008.32 1008.89 1009.41
1004.76 1004.09 1003.47 1002.94 1002.52 1002.19 1001.96 1001.80 1001.67 1001.56 1001.43 1001.28 1001.10 1000.90 1000.68 1000.48 1000.30 1000.16 1000.06 1000.03 1000.05 1000.13 1000.26 1000.45 1000.68 1000.96 1001.26 1001.60 1001.96 1002.33 1002.71 1003.10 1003.49 1003.91 1004.34 1004.81 1005.31 1005.86 1006.46 1007.08 1007.72 1008.36 1008.95
1005.48 1004.78 1004.11 1003.52 1003.03 1002.64 1002.37 1002.18 1002.05 1001.96 1001.87 1001.77 1001.64 1001.50 1001.33 1001.15 1000.97 1000.80 1000.65 1000.53 1000.44 1000.40 1000.41 1000.46 1000.57 1000.73 1000.93 1001.18 1001.47 1001.78 1002.11 1002.47 1002.84 1003.23 1003.66 1004.12 1004.64 1005.21 1005.84 1006.50 1007.20 1007.89 1008.56
1006.17 1005.48 1004.80 1004.18 1003.64 1003.21 1002.89 1002.65 1002.50 1002.39 1002.31 1002.24 1002.15 1002.04 1001.91 1001.75 1001.57 1001.37 1001.17 1000.98 1000.80 1000.64 1000.52 1000.46 1000.44 1000.49 1000.61 1000.78 1001.00 1001.27 1001.57 1001.91 1002.27 1002.66 1003.09 1003.57 1004.10 1004.70 1005.35 1006.06 1006.80 1007.55 1008.28
1006.68 1006.06 1005.43 1004.82 1004.28 1003.82 1003.45 1003.18 1002.98 1002.85 1002.76 1002.68 1002.61 1002.52 1002.40 1002.26 1002.07 1001.85 1001.60 1001.33 1001.06 1000.80 1000.57 1000.38 1000.26 1000.22 1000.25 1000.35 1000.54 1000.78 1001.08 1001.42 1001.79 1002.21 1002.67 1003.18 1003.74 1004.37 1005.06 1005.81 1006.59 1007.38 1008.16
1006.96 1006.44 1005.90 1005.35 1004.84 1004.39 1004.01 1003.71 1003.47 1003.31 1003.19 1003.10 1003.02 1002.93 1002.82 1002.67 1002.48 1002.23 1001.93 1001.60 1001.24 1000.88 1000.54 1000.25 1000.03 999.90 999.86 999.93 1000.08 1000.33 1000.64 1001.02 1001.44 1001.91 1002.42 1002.98 1003.59 1004.26 1004.99 1005.77 1006.58 1007.39 1008.19
1006.98 1006.61 1006.19 1005.74 1005.30 1004.89 1004.52 1004.20 1003.95 1003.76 1003.61 1003.50 1003.41 1003.31 1003.20 1003.04 1002.82 1002.54 1002.20 1001.80 1001.37 1000.92 1000.49 1000.10 999.80 999.59 999.50 999.54 999.69 999.95 1000.30 1000.73 1001.23 1001.77 1002.36 1002.99 1003.66 1004.39 1005.15 1005.95 1006.77 1007.59 1008.38
1006.84 1006.61 1006.32 1006.00 1005.65 1005.31 1004.97 1004.67 1004.41 1004.20 1004.03 1003.90 1003.79 1003.69 1003.56 1003.39 1003.16 1002.85 1002.47 1002.02 1001.52 1000.99 1000.48 1000.02 999.64 999.38 999.25 999.26 999.42 999.71 1000.11 1000.61 1001.19 1001.82 1002.49 1003.20 1003.95 1004.72 1005.52 1006.34 1007.15 1007.95 1008.71
1006.62 1006.53 1006.38 1006.18 1005.94 1005.67 1005.39 1005.12 1004.87 1004.65 1004.47 1004.33 1004.20 1004.08 1003.94 1003.76 1003.52 1003.19 1002.78 1002.30 1001.75 1001.17 1000.60 1000.08 999.65 999.34 999.18 999.18 999.35 999.67 1000.12 1000.69 1001.35 1002.06 1002.82 1003.61 1004.42 1005.23 1006.06 1006.87 1007.66 1008.42 1009.12
1006.45 1006.47 1006.44 1006.35 1006.21 1006.02 1005.79 1005.56 1005.33 1005.11 1004.92 1004.76 1004.62 1004.49 1004.35 1004.16 1003.92 1003.59 1003.18 1002.68 1002.12 1001.52 1000.91 1000.36 999.89 999.56 999.38 999.37 999.55 999.89 1000.39 1001.01 1001.73 1002.51 1003.34 1004.18 1005.03 1005.88 1006.71 1007.50 1008.26 1008.96 1009.59
1006.38 1006.48 1006.54 1006.54 1006.47 1006.35 1006.18 1005.98 1005.76 1005.54 1005.35 1005.18 1005.03 1004.89 1004.75 1004.58 1004.34 1004.04 1003.65 1003.17 1002.63 1002.04 1001.45 1000.90 1000.43 1000.09 999.90 999.89 1000.07 1000.43 1000.94 1001.59 1002.34 1003.16 1004.01 1004.89 1005.76 1006.60 1007.41 1008.17 1008.88 1009.51 1010.06
Thickness
5803 5802 5800 5798 5793 5789 5786 5782 5779 5777 5775 5771 5769 5766 5763 5763 5762 5761 5758 5756 5754 5752 5749 5748 5746 5745 5743 5742 5742 5740 5739 5738 5739 5735 5732 5735 5738 5738 5738 5737 5736 5735 5735
5797 5794 5793 5791 5788 5783 5781 5778 5776 5773 5772 5770 5768 5766 5764 5762 5760 5759 5757 5754 5752 5750 5748 5745 5744 5742 5740 5740 5739 5737 5734 5735 5736 5731 5726 5723 5726 5731 5736 5734 5734 5734 5733
5794 5790 5787 5786 5783 5779 5776 5775 5773 5771 5769 5768 5766 5764 5762 5759 5756 5754 5753 5752 5750 5748 5746 5744 5742 5740 5738 5737 5736 5734 5732 5729 5731 5732 5726 5719 5716 5722 5727 5730 5731 5730 5730
5795 5790 5785 5782 5780 5779 5777 5774 5770 5768 5766 5765 5763 5759 5755 5752 5752 5752 5751 5750 5748 5746 5744 5742 5739 5738 5736 5734 5733 5733 5731 5728 5725 5727 5728 5726 5724 5717 5715 5721 5725 5726 5726
5793 5789 5786 5781 5779 5778 5775 5771 5767 5764 5763 5762 5760 5757 5754 5752 5751 5750 5748 5746 5745 5744 5742 5739 5737 5735 5733 5732 5731 5729 5728 5727 5724 5723 5723 5723 5722 5721 5714 5711 5715 5719 5722
5791 5787 5784 5781 5777 5775 5772 5768 5763 5760 5759 5757 5756 5753 5750 5748 5746 5744 5743 5741 5740 5740 5738 5737 5734 5732 5731 5729 5728 5726 5725 5724 5723 5722 5721 5719 5716 5715 5714 5710 5711 5712 5716
5787 5780 5776 5774 5771 5769 5767 5764 5759 5755 5755 5754 5751 5750 5748 5746 5743 5741 5739 5737 5736 5734 5733 5733 5730 5729 5727 5726 5724 5723 5721 5721 5719 5718 5718 5717 5717 5716 5714 5710 5708 5708 5711
5781 5776 5772 5769 5766 5764 5762 5758 5755 5751 5750 5749 5747 5746 5744 5743 5741 5739 5737 5735 5733 5732 5731 5729 5727 5725 5724 5722 5721 5719 5718 5717 5716 5715 5714 5713 5714 5714 5712 5709 5705 5701 5703
5774 5771 5768 5766 5763 5759 5756 5754 5750 5747 5745 5744 5742 5741 5740 5739 5737 5736 5735 5732 5730 5730 5727 5725 5722 5721 5720 5718 5717 5715 5713 5712 5711 5710 5710 5709 5709 5710 5710 5708 5706 5699 5694
5767 5764 5763 5761 5758 5755 5752 5749 5746 5743 5741 5740 5738 5737 5736 5735 5734 5733 5730 5728 5726 5724 5722 5720 5718 5716 5715 5714 5712 5710 5709 5707 5706 5705 5704 5703 5703 5704 5704 5704 5703 5701 5696
5759 5758 5757 5755 5752 5749 5746 5743 5740 5738 5736 5735 5733 5732 5731 5730 5729 5728 5726 5724 5722 5720 5717 5715 5713 5712 5710 5709 5707 5705 5704 5702 5701 5701 5700 5698 5698 5697 5698 5698 5698 5697 5695
5754 5753 5751 5748 5745 5741 5739 5736 5734 5732 5731 5730 5728 5726 5725 5724 5723 5722 5720 5719 5717 5715 5713 5711 5709 5707 5706 5704 5702 5699 5699 5697 5696 5695 5694 5693 5693 5691 5691 5691 5691 5691 5691
5745 5743 5741 5738 5735 5734 5732 5730 5728 5726 5725 5724 5722 5720 5718 5717 5716 5715 5714 5713 5712 5710 5708 5706 5704 5703 5701 5699 5697 5695 5694 5692 5691 5690 5688 5687 5686 5685 5684 5684 5684 5685 5686
5734 5731 5729 5728 5726 5725 5725 5723 5721 5720 5719 5718 5716 5713 5712 5711 5710 5710 5708 5707 5707 5705 5703 5702 5700 5698 5695 5693 5692 5690 5689 5687 5686 5685 5683 5682 5681 5680 5679 5678 5677 5678 5677
5722 5719 5718 5717 5718 5717 5716 5715 5713 5712 5712 5710 5708 5707 5707 5706 5704 5704 5703 5702 5702 5701 5700 5697 5696 5693 5691 5688 5686 5684 5684 5681 5680 5679 5677 5677 5676 5675 5674 5673 5671 5670 5669
5711 5711 5710 5709 5708 5709 5708 5707 5706 5705 5705 5703 5702 5702 5701 5699 5698 5697 5697 5696 5695 5695 5694 5692 5690 5688 5686 5682 5679 5677 5677 5675 5674 5672 5671 5671 5670 5669 5668 5666 5665 5664 5663
5701 5702 5702 5702 5701 5702 5702 5700 5700 5699 5698 5696 5696 5695 5694 5693 5692 5692 5690 5689 5688 5688 5687 5685 5683 5681 5678 5676 5674 5672 5671 5669 5668 5667 5666 5666 5665 5663 5662 5660 5660 5659 5659
5693 5694 5695 5696 5696 5697 5696 5694 5694 5692 5691 5690 5689 5689 5689 5688 5687 5685 5683 5682 5681 5680 5679 5678 5677 5674 5672 5670 5668 5666 5665 5664 5663 5663 5662 5660 5658 5657 5655 5654 5653 5653 5653
5686 5687 5689 5690 5689 5689 5688 5687 5686 5685 5684 5683 5682 5683 5683 5681 5679 5677 5676 5675 5674 5673 5672 5672 5671 5669 5665 5662 5661 5658 5658 5658 5658 5658 5657 5656 5653 5650 5648 5647 5646 5645 5645
5679 5680 5682 5682 5681 5681 5681 5679 5679 5678 5676 5676 5676 5677 5676 5674 5672 5671 5670 5668 5667 5666 5666 5665 5665 5664 5660 5657 5655 5652 5653 5652 5651 5652 5651 5649 5647 5644 5642 5641 5639 5638 5638
5671 5672 5673 5672 5672 5673 5673 5671 5670 5669 5669 5670 5669 5669 5668 5667 5667 5665 5664 5662 5661 5660 5659 5658 5659 5658 5656 5652 5649 5647 5647 5646 5645 5645 5645 5643 5640 5638 5636 5634 5633 5633 5632
5663 5663 5663 5663 5663 5664 5664 5662 5661 5663 5663 5662 5661 5661 5661 5661 5661 5659 5657 5656 5655 5654 5653 5652 5652 5652 5651 5648 5645 5642 5640 5640 5639 5639 5639 5637 5634 5632 5631 5629 5629 5627 5626
5654 5654 5654 5653 5653 5654 5654 5652 5653 5654 5654 5654 5652 5652 5652 5652 5652 5651 5650 5649 5648 5647 5648 5647 5646 5646 5646 5643 5640 5637 5635 5634 5633 5633 5632 5630 5628 5627 5626 5624 5623 5621 5621
5645 5645 5644 5643 5642 5643 5644 5644 5645 5646 5646 5645 5645 5644 5644 5644 5644 5643 5643 5641 5641 5640 5641 5641 5641 5641 5639 5637 5633 5630 5629 5627 5626 5626 5625 5624 5623 5622 5621 5619 5618 5617 5617
5636 5636 5635 5634 5634 5634 5635 5636 5637 5637 5636 5636 5636 5636 5636 5636 5635 5635 5634 5634 5633 5634 5633 5634 5635 5633 5631 5629 5626 5624 5623 5621 5620 5618 5619 5618 5618 5617 5616 5616 5615 5614 5613
5629 5628 5627 5626 5626 5626 5627 5628 5628 5628 5627 5627 5627 5627 5628 5629 5628 5628 5627 5626 5626 5625 5625 5625 5625 5626 5624 5621 5620 5619 5617 5615 5613 5612 5613 5613 5613 5612 5611 5610 5609 5609 5608